K9JM Weather Reports


time (UTC)temp
C
wind
direction
speed
KPH
gust
KPH
rain 1hr
cm
rain 24hr
cm
rain mn
cm
humidity
%
barometer
mb
20260904170017 13 0.0 3.2 0.00 1.96 1.02 96 1014.1
20260904164516 13 113 1.6 4.8 0.00 1.96 1.02 96 1013.9
20260904163016 13 0.0 6.4 0.00 1.96 1.02 97 1013.8
20260904161517 12 0.0 8.0 0.03 1.96 1.02 96 1013.6
20260904160016 12 0.0 4.8 0.03 1.96 1.02 96 1013.4
20260904154516 12 0.0 3.2 0.03 1.96 1.02 96 1013.2
20260904153037 12 0.0 9.7 0.05 1.96 1.02 96 1013.2
20260904151517 12 0.0 4.8 0.03 1.93 0.99 96 1013.2
20260904150016 12 0.0 3.2 0.05 1.93 0.99 96 1013.1
20260904144517 12 0.0 1.6 0.05 1.93 0.99 96 1012.9
20260904143016 12 0.0 3.2 0.03 1.91 0.97 96 1012.9
20260904141517 12 0.0 1.6 0.03 1.91 0.97 96 1012.7
20260904140017 12 0.0 1.6 0.00 1.88 0.94 96 1012.6
20260904134516 12 0.0 0.0 0.03 1.88 0.94 96 1012.4
20260904133016 12 0.0 1.6 0.03 1.88 0.94 96 1012.4
20260904131516 12 0.0 0.0 0.03 1.88 0.94 96 1012.3
20260904130036 12 0.0 3.2 0.03 1.88 0.94 96 1012.2
20260904124516 12 0.0 0.0 0.00 1.85 0.91 96 1011.9
20260904123016 12 0.0 0.0 0.00 1.85 0.91 96 1011.9
20260904121516 12 0.0 1.6 0.03 1.85 0.91 96 1011.8
20260904120016 12 0.0 0.0 0.05 1.85 0.91 96 1011.8
20260904114516 12 0.0 0.0 0.08 1.85 0.91 96 1011.6
20260904113016 12 0.0 1.6 0.08 1.85 0.91 95 1011.7
20260904111556 13 0.0 8.0 0.10 1.83 0.89 96 1011.9
20260904110016 13 0.0 1.6 0.10 1.80 0.86 96 1011.6
20260904104516 13 0.0 0.0 0.15 1.78 0.84 96 1011.6
20260904103036 13 0.0 3.2 0.23 1.78 0.84 96 1011.6
20260904101536 13 0.0 1.6 0.25 1.73 0.81 96 1011.6
20260904100016 13 0.0 4.8 0.36 1.70 0.76 96 1011.4
20260904094536 13 0.0 8.0 0.36 1.63 0.69 96 1011.6
20260904093016 13 0.0 1.6 0.41 1.55 0.61 96 1011.6
20260904091516 13 0.0 1.6 0.36 1.47 0.53 95 1011.7
20260904090016 13 0.0 0.0 0.28 1.35 0.41 95 1011.7
20260904084516 13 0.0 3.2 0.25 1.27 0.33 95 1011.8
20260904083016 13 0.0 4.8 0.13 1.14 0.20 95 1011.9
20260904081536 14 0.0 4.8 0.13 1.12 0.18 95 1012.0
20260904080016 14 0.0 0.0 0.13 1.07 0.13 95 1012.0
20260904074516 14 0.0 1.6 0.13 1.02 0.08 95 1012.1
20260904073016 14 0.0 0.0 0.15 1.02 0.08 95 1012.1
20260904071516 14 0.0 0.0 0.18 0.99 0.05 95 1012.1
20260904070016 14 0.0 1.6 0.23 0.94 0.94 95 1012.1
20260904064515 14 0.0 0.0 0.28 0.89 0.89 95 1012.1
20260904063015 14 0.0 0.0 0.33 0.86 0.86 95 1012.1
20260904061515 14 0.0 1.6 0.43 0.81 0.81 94 1012.0
20260904060017 14 0.0 3.2 0.38 0.71 0.71 95 1012.0
20260904054517 14 0.0 8.0 0.30 0.61 0.61 94 1012.0
20260904053017 14 0.0 1.6 0.30 0.53 0.53 94 1011.9
20260904051515 14 0.0 1.6 0.20 0.38 0.38 94 1012.0
20260904050017 15 0.0 1.6 0.15 0.33 0.33 94 1012.1
20260904044517 15 0.0 4.8 0.15 0.30 0.30 94 1012.1
20260904043017 15 0.0 3.2 0.10 0.23 0.23 93 1011.9
20260904041517 15 0.0 1.6 0.18 0.18 0.18 93 1012.0
20260904040017 15 0.0 1.6 0.18 0.18 0.18 93 1011.7
20260904034517 15 0.0 1.6 0.15 0.15 0.15 93 1011.8
20260904033017 15 0.0 0.0 0.13 0.13 0.13 92 1011.8
20260904031517 15 0.0 4.8 0.00 0.00 0.00 92 1011.7
20260904030017 15 0.0 0.0 0.00 0.00 0.00 91 1011.5
20260904024517 15 0.0 0.0 0.00 0.00 0.00 90 1011.7
20260904023017 15 0.0 1.6 0.00 0.00 0.00 89 1011.9
20260904021537 16 0.0 3.2 0.00 0.00 0.00 88 1011.9
20260904020017 16 0.0 1.6 0.00 0.00 0.00 86 1011.9
20260904014517 16 0.0 1.6 0.00 0.00 0.00 84 1012.1
20260904013017 16 0.0 0.0 0.00 0.00 0.00 82 1012.2
20260904011517 16 0.0 3.2 0.00 0.00 0.00 82 1012.3
20260904010017 17 0.0 4.8 0.00 0.00 0.00 81 1012.4
20260904004517 16 0.0 1.6 0.00 0.00 0.00 81 1012.5
20260904003037 16 0.0 1.6 0.00 0.00 0.00 80 1012.6
20260904001517 16 0.0 4.8 0.00 0.00 0.00 81 1012.7
20260904000017 16 0.0 3.2 0.00 0.00 0.00 80 1012.7
20260903234517 17 0.0 4.8 0.00 0.00 0.00 79 1012.8
20260903233017 17 0.0 6.4 0.00 0.00 0.00 79 1012.8
20260903231517 16 0.0 4.8 0.00 0.00 0.00 79 1012.8
20260903230017 16 113 1.6 8.0 0.00 0.00 0.00 79 1013.0
20260903224517 17 113 1.6 6.4 0.00 0.00 0.00 79 1013.2
20260903223017 17 0.0 1.6 0.00 0.00 0.00 78 1013.3
20260903221517 17 0.0 4.8 0.00 0.00 0.00 78 1013.6
20260903220017 17 0.0 3.2 0.00 0.00 0.00 77 1013.8
20260903214516 17 0.0 6.4 0.00 0.00 0.00 75 1013.9
20260903213017 17 0.0 6.4 0.00 0.00 0.00 75 1013.9
20260903211517 17 0.0 1.6 0.00 0.00 0.00 74 1014.0
20260903210017 17 0.0 3.2 0.00 0.00 0.00 73 1014.0
20260903204516 17 0.0 1.6 0.00 0.00 0.00 74 1014.1
20260903203016 17 0.0 1.6 0.00 0.00 0.00 72 1014.0
20260903201517 17 180 1.6 8.0 0.00 0.00 0.00 71 1014.1
20260903200056 17 135 1.6 6.4 0.00 0.00 0.00 69 1014.3
20260903194517 17 0.0 6.4 0.00 0.00 0.00 67 1014.4
20260903193016 17 0.0 3.2 0.00 0.00 0.00 67 1014.5
20260903191516 17 0.0 3.2 0.00 0.00 0.00 68 1014.5
20260903190016 17 158 1.6 6.4 0.00 0.00 0.00 66 1014.9
20260903184516 17 158 1.6 9.7 0.00 0.00 0.00 66 1014.9
20260903183017 17 135 1.6 8.0 0.00 0.00 0.00 67 1015.0
20260903181537 17 113 1.6 8.0 0.00 0.00 0.00 68 1014.9
20260903180017 17 135 1.6 8.0 0.00 0.00 0.00 67 1015.1
20260903174516 17 113 1.6 9.7 0.00 0.00 0.00 67 1015.1
20260903173016 16 113 1.6 6.4 0.00 0.00 0.00 66 1014.9
20260903171517 16 158 1.6 6.4 0.00 0.00 0.00 65 1014.9